Terminal Aerodrome Forecast
Issued by NWS Mt. Holly, NJ

Home | Current Version | Previous Version | Text Only | Print | Product List | Glossary On
Versions: 1 2 3 4 5 6 7 8 9 10 11 12 13 14 15 16 17 18 19 20 21 22 23 24 25 26 27 28 29 30 31 32 33 34 35 36 37 38 39 40 41 42 43 44 45 46 47 48 49 50
000
FTAK31 PANC 231740
TAFABE
TAF
PABE 231740Z 2318/2418 05008KT P6SM OVC150
     FM232100 09007KT P6SM OVC120
      TEMPO 2400/2404 -SHRA BKN060
     FM240900 09010KT P6SM OVC060
     FM241500 08008KT P6SM -RA OVC025=

USA.gov is the U.S. government's official web portal to all federal, state and local government web resources and services.